Location: Unspecified
(0.0000°N, 0.0000°E)
Time: 15:01:58
(UTC+00:00)

COSMOS 2391 - Pass Details

Date: 14 June 2023
Orbit: 1466 x 1505 km, 82.5° (Epoch: 25 September)

Event Time Altitude Azimuth Distance (km) Brightness Sun altitude
Exits shadow 01:35:28 14° 79° (E) 3,326 10.5 -57.2°
Drops below altitude 10° 01:38:06 10° 62° (ENE) 3,640 10.8 -56.7°
Sets 01:42:38 0° 41° (NE) 4,611 11.5 -56.0°
